When you browse on this site, cookies collect data to enhance your experience and personalize the content and advertising you see.
Visit our Privacy Policy to learn more. By continuing to use the site, you agree to this use of cookies and data.
  • En España
  • Lista de países
  • Para 7 días
  • Temperatura del agua
  • Mapa Satelital
  • El tiempo en el mapa
  • Informadores
  • user-avatar
    Iniciar sesión

    Tiempo cada hora Tirana

    Hoy, 18 Junio, Martes

    Tiempo Temperatura Precipitaciones Viento Presión Humedad
    00:00 +23°C° 0.1 mm 1 mps 752 mmHg 79%
    01:00 +23°C° 0 mm 1 mps 752 mmHg 78%
    02:00 +23°C° 0.3 mm 1 mps 752 mmHg 78%
    03:00 +22°C° 0.3 mm 1 mps 752 mmHg 78%
    04:00 +22°C° 0.3 mm 1 mps 752 mmHg 78%
    05:00 +23°C° 0.1 mm 1 mps 752 mmHg 73%
    06:00 +25°C° 0.1 mm 1 mps 753 mmHg 67%
    07:00 +26°C° 0.1 mm 1 mps 753 mmHg 61%
    08:00 +28°C° 0 mm 1 mps 753 mmHg 57%
    09:00 +30°C° 0 mm 1 mps 753 mmHg 52%
    10:00 +31°C° 0 mm 1 mps 753 mmHg 48%
    11:00 +32°C° 0 mm 2 mps 753 mmHg 47%
    12:00 +33°C° 0 mm 3 mps 752 mmHg 46%
    13:00 +33°C° 0 mm 4 mps 752 mmHg 45%
    14:00 +33°C° 0 mm 4 mps 752 mmHg 48%
    15:00 +32°C° 0 mm 4 mps 752 mmHg 52%
    16:00 +30°C° 0 mm 3 mps 752 mmHg 55%
    17:00 +29°C° 0 mm 3 mps 752 mmHg 63%
    18:00 +27°C° 0 mm 2 mps 752 mmHg 70%
    19:00 +25°C° 0 mm 2 mps 752 mmHg 78%
    20:00 +24°C° 0 mm 1 mps 752 mmHg 80%
    21:00 +24°C° 0 mm 1 mps 752 mmHg 82%
    22:00 +21°C° 0 mm 0 mps 752 mmHg 84%
    23:00 +21°C° 0 mm 0 mps 752 mmHg 84%

    Mañana, 19 Junio, Miércoles

    Tiempo Temperatura Precipitaciones Viento Presión Humedad
    00:00 +22°C° 0 mm 1 mps 752 mmHg 84%
    01:00 +22°C° 0 mm 1 mps 752 mmHg 84%
    02:00 +22°C° 0 mm 1 mps 752 mmHg 83%
    03:00 +21°C° 0 mm 1 mps 752 mmHg 82%
    04:00 +21°C° 0 mm 1 mps 751 mmHg 81%
    05:00 +23°C° 0 mm 1 mps 752 mmHg 75%
    06:00 +22°C° 0 mm 0 mps 752 mmHg 70%
    07:00 +24°C° 0 mm 0 mps 752 mmHg 64%
    08:00 +28°C° 0 mm 1 mps 752 mmHg 59%
    09:00 +29°C° 0 mm 1 mps 752 mmHg 54%
    10:00 +30°C° 0 mm 2 mps 751 mmHg 49%
    11:00 +31°C° 0 mm 3 mps 751 mmHg 50%
    12:00 +31°C° 0 mm 3 mps 751 mmHg 51%
    13:00 +32°C° 0 mm 4 mps 751 mmHg 52%
    14:00 +32°C° 0 mm 4 mps 751 mmHg 54%
    15:00 +30°C° 0 mm 4 mps 751 mmHg 56%
    16:00 +29°C° 0 mm 4 mps 750 mmHg 58%
    17:00 +28°C° 0 mm 3 mps 750 mmHg 65%
    18:00 +26°C° 0 mm 2 mps 750 mmHg 71%
    19:00 +25°C° 0 mm 2 mps 751 mmHg 78%
    20:00 +24°C° 0 mm 1 mps 751 mmHg 80%
    21:00 +24°C° 0 mm 1 mps 751 mmHg 83%
    22:00 +23°C° 0 mm 1 mps 751 mmHg 85%
    23:00 +22°C° 0 mm 1 mps 751 mmHg 86%

    Pasado mañana, 20 Junio, Jueves

    Tiempo Temperatura Precipitaciones Viento Presión Humedad
    00:00 +22°C° 0 mm 1 mps 751 mmHg 87%
    01:00 +21°C° 0 mm 1 mps 751 mmHg 88%
    02:00 +21°C° 0 mm 1 mps 751 mmHg 88%
    03:00 +21°C° 0 mm 1 mps 751 mmHg 88%
    04:00 +21°C° 0 mm 1 mps 751 mmHg 88%
    05:00 +22°C° 0 mm 1 mps 751 mmHg 81%
    06:00 +24°C° 0 mm 1 mps 751 mmHg 74%
    07:00 +26°C° 0 mm 1 mps 751 mmHg 67%
    08:00 +27°C° 0 mm 1 mps 751 mmHg 60%
    09:00 +28°C° 0 mm 1 mps 751 mmHg 53%
    10:00 +30°C° 0 mm 2 mps 751 mmHg 46%
    11:00 +30°C° 0 mm 2 mps 751 mmHg 47%
    12:00 +30°C° 0 mm 3 mps 751 mmHg 47%
    13:00 +31°C° 0 mm 3 mps 751 mmHg 48%
    14:00 +30°C° 0 mm 3 mps 751 mmHg 50%
    15:00 +30°C° 0 mm 3 mps 751 mmHg 53%
    16:00 +29°C° 0 mm 3 mps 751 mmHg 55%
    17:00 +28°C° 0 mm 2 mps 751 mmHg 63%
    18:00 +26°C° 0 mm 1 mps 751 mmHg 70%
    19:00 +25°C° 0 mm 1 mps 751 mmHg 78%
    20:00 +24°C° 0 mm 1 mps 751 mmHg 80%
    21:00 +21°C° 0 mm 0 mps 751 mmHg 82%
    22:00 +21°C° 0 mm 0 mps 752 mmHg 84%
    23:00 +20°C° 0 mm 0 mps 752 mmHg 84%

    21 Junio, Viernes

    Tiempo Temperatura Precipitaciones Viento Presión Humedad
    00:00 +22°C° 0 mm 1 mps 752 mmHg 84%
    01:00 +22°C° 0 mm 1 mps 752 mmHg 85%
    02:00 +22°C° 0 mm 1 mps 752 mmHg 85%
    03:00 +21°C° 0 mm 1 mps 752 mmHg 86%
    04:00 +21°C° 0 mm 1 mps 752 mmHg 87%
    05:00 +23°C° 0 mm 1 mps 752 mmHg 80%
    06:00 +24°C° 0 mm 1 mps 752 mmHg 73%
    07:00 +26°C° 0 mm 2 mps 752 mmHg 66%
    08:00 +28°C° 0 mm 2 mps 752 mmHg 61%
    09:00 +29°C° 0 mm 2 mps 752 mmHg 56%
    10:00 +31°C° 0 mm 2 mps 752 mmHg 51%
    11:00 +31°C° 0 mm 2 mps 752 mmHg 51%
    12:00 +31°C° 0 mm 3 mps 752 mmHg 51%
    13:00 +33°C° 0 mm 4 mps 752 mmHg 52%
    14:00 +32°C° 0 mm 4 mps 752 mmHg 53%
    15:00 +31°C° 0 mm 3 mps 752 mmHg 55%
    16:00 +30°C° 0 mm 3 mps 751 mmHg 57%
    17:00 +29°C° 0 mm 2 mps 752 mmHg 62%
    18:00 +27°C° 0 mm 2 mps 752 mmHg 68%
    19:00 +26°C° 0 mm 1 mps 752 mmHg 74%
    20:00 +25°C° 0 mm 1 mps 752 mmHg 77%
    21:00 +24°C° 0 mm 1 mps 752 mmHg 79%
    22:00 +22°C° 0 mm 0 mps 753 mmHg 82%
    23:00 +22°C° 0 mm 0 mps 753 mmHg 83%

    22 Junio, Sábado

    Tiempo Temperatura Precipitaciones Viento Presión Humedad
    00:00 +21°C° 0 mm 0 mps 753 mmHg 84%
    01:00 +21°C° 0 mm 0 mps 753 mmHg 85%
    02:00 +23°C° 0 mm 1 mps 753 mmHg 85%
    03:00 +23°C° 0 mm 1 mps 753 mmHg 86%
    04:00 +22°C° 0 mm 1 mps 753 mmHg 86%
    05:00 +24°C° 0 mm 1 mps 753 mmHg 79%
    06:00 +26°C° 0 mm 1 mps 753 mmHg 72%
    07:00 +28°C° 0 mm 1 mps 753 mmHg 64%
    08:00 +30°C° 0 mm 1 mps 753 mmHg 58%
    09:00 +31°C° 0 mm 1 mps 753 mmHg 51%
    10:00 +33°C° 0 mm 1 mps 753 mmHg 45%
    11:00 +35°C° 0 mm 2 mps 753 mmHg 43%
    12:00 +36°C° 0 mm 2 mps 753 mmHg 41%
    13:00 +36°C° 0 mm 3 mps 753 mmHg 39%
    14:00 +36°C° 0 mm 3 mps 753 mmHg 41%
    15:00 +35°C° 0 mm 3 mps 753 mmHg 44%
    16:00 +34°C° 0 mm 3 mps 752 mmHg 46%
    17:00 +31°C° 0 mm 3 mps 752 mmHg 54%
    18:00 +30°C° 0 mm 2 mps 753 mmHg 62%
    19:00 +28°C° 0 mm 1 mps 753 mmHg 69%
    20:00 +27°C° 0 mm 1 mps 753 mmHg 70%
    21:00 +26°C° 0 mm 1 mps 753 mmHg 71%
    22:00 +26°C° 0 mm 1 mps 753 mmHg 71%
    23:00 +26°C° 0 mm 1 mps 753 mmHg 71%

    23 Junio, Domingo

    Tiempo Temperatura Precipitaciones Viento Presión Humedad
    00:00 +26°C° 0 mm 1 mps 753 mmHg 70%
    01:00 +25°C° 0 mm 1 mps 753 mmHg 70%
    02:00 +25°C° 0 mm 1 mps 753 mmHg 68%
    03:00 +25°C° 0 mm 1 mps 753 mmHg 66%
    04:00 +25°C° 0 mm 2 mps 753 mmHg 64%
    05:00 +27°C° 0 mm 2 mps 753 mmHg 58%
    06:00 +29°C° 0 mm 2 mps 754 mmHg 53%
    07:00 +31°C° 0 mm 2 mps 754 mmHg 47%
    08:00 +32°C° 0 mm 2 mps 754 mmHg 43%
    09:00 +34°C° 0 mm 2 mps 754 mmHg 39%
    10:00 +36°C° 0 mm 3 mps 754 mmHg 35%
    11:00 +36°C° 0 mm 3 mps 754 mmHg 36%
    12:00 +35°C° 0 mm 3 mps 754 mmHg 37%
    13:00 +35°C° 0 mm 3 mps 754 mmHg 39%
    14:00 +35°C° 0 mm 2 mps 754 mmHg 39%
    15:00 +35°C° 0 mm 2 mps 754 mmHg 40%
    16:00 +33°C° 0 mm 1 mps 754 mmHg 40%
    17:00 +31°C° 0 mm 1 mps 754 mmHg 48%
    18:00 +27°C° 0 mm 0 mps 754 mmHg 55%
    19:00 +25°C° 0 mm 0 mps 754 mmHg 62%
    20:00 +25°C° 0 mm 0 mps 754 mmHg 63%
    21:00 +24°C° 0 mm 0 mps 754 mmHg 63%
    22:00 +24°C° 0 mm 0 mps 755 mmHg 64%
    23:00 +25°C° 0 mm 1 mps 755 mmHg 65%
    Mostrar más